Regional Weather Roundup
Issued by NWS

Home | Current Version | Previous Version | Text Only | Print | Product List | Glossary Off
Versions: 1 2 3 4 5 6 7 8 9 10 11 12 13 14 15 16 17 18 19 20 21 22 23 24 25 26 27 28 29 30 31 32 33 34 35 36 37 38 39 40 41 42 43 44 45 46 47 48 49 50

000
ASUS45 KSLC 171610
RWRUT

UTAH REGIONAL WEATHER ROUNDUP
NATIONAL WEATHER SERVICE SALT LAKE CITY UT
900 AM MST WED DEC 17 2014

UTZ001>011-023>025-171700-

NORTHERN UTAH

CITY           SKY/WX    TMP DP  RH WIND       PRES   REMARKS
BRIGHAM CITY   CLOUDY    31  28  88 CALM      30.00S
HILL AFB       PTSUNNY   32  30  94 S5        29.99S WCI  27
LOGAN          MOCLDY    30  27  88 CALM      30.00S
OGDEN          PTCLDY    31  27  85 S3        29.99S
PROVO AIRPORT  PTSUNNY   34  27  75 CALM      30.00R
SALT LAKE CITY PTSUNNY   32  29  88 CALM      30.00S
VERNAL         CLOUDY    22  20  92 N9        30.05F FOG     WCI  12
WENDOVER       PTCLDY    19  18  93 NE3       30.03R
HEBER CITY     MOSUNNY   28  23  80 CALM      29.99R
WEST JORDAN    CLOUDY    30  30 100 CALM      30.00S

$$

UTZ012>022-026-027-171700-

SOUTHERN/CENTRAL UTAH

CITY           SKY/WX    TMP DP  RH WIND       PRES   REMARKS
BLANDING       CLOUDY    36  28  74 CALM      30.06R
BRYCE CANYON   LGT SNOW  27  24  89 CALM      29.97R FOG
CEDAR CITY     LGT SNOW  32  30  92 NE3       29.98R FOG
DELTA          CLOUDY    27  26  93 N3        29.98S
MILFORD        CLOUDY    34  27  75 S13       29.98R WCI  25
MOAB/CYNLANDS  CLOUDY    34  33  96 W3        29.99S
PRICE          MOSUNNY   30  21  69 CALM      29.98S
ST GEORGE      PTSUNNY   43  36  75 E6        30.04R
KANAB            N/A    N/A N/A N/A CALM      30.05R

$$

REGIONAL REPORTS     COLORADO/ARIZONA

CITY           SKY/WX    TMP DP  RH WIND       PRES   REMARKS
CRAIG, CO      FOG       20  19  96 CALM      30.01S VSB 1/2
GRAND JUNCTION LGT SNOW  32  31  96 SE6       30.01S FOG     WCI  26
RIFLE          CLOUDY    28  27  96 CALM      30.03R FOG
MONTROSE       CLOUDY    32  27  81 E3        30.03S
CORTEZ         CLOUDY    33  29  85 E3        29.99R
PAGE, AZ       LGT RAIN  40  32  73 N6        30.00R
GRAND CANYON   LGT SNOW  30  28  92 SW3       30.01R VSB 3/4
KINGMAN        MOSUNNY   41  35  79 CALM      30.02R
FLAGSTAFF      CLOUDY    30  28  92 SW6       30.00R FOG     WCI  24

$$

REGIONAL REPORTS    NEVADA/IDAHO/WYOMING

CITY           SKY/WX    TMP DP  RH WIND       PRES   REMARKS
LAS VEGAS, NV  CLOUDY    48  40  73 SW5       29.98R
ELY            CLOUDY    29  24  82 S8        29.97S WCI  21
ELKO           FOG       22  21  96 CALM      29.99R VSB 1/4
POCATELLO, ID  FOG       22  22 100 NW3       30.02R VSB 1/8
BURLEY         CLEAR     26  22  84 N3        29.98S
EVANSTON, WY   CLOUDY    27  20  75 E5        29.97S WCI  22
ROCK SPRINGS   MOSUNNY   11   8  88 S6        29.99S WCI   1

$$


USA.gov is the U.S. government's official web portal to all federal, state and local government web resources and services.